{"data":{"norad_id":68737,"intl_designator":"2026-082K","name":"STARLINK-37348","alt_names":[],"object_type":"PAYLOAD","status":"ACTIVE","operator":null,"country":"US","launch_date":"2026-04-15","launch_site_code":"AFWTR","launch_vehicle":null,"mission":null,"orbit_class":"UNKNOWN","rcs_meters":null,"size_class":null,"mass_kg":null,"dimensions":null,"purposes":["comms"],"wikipedia_slug":null,"has_3d_model":false,"image_url":null,"decayed_at":null,"tle_current":{"epoch":"2026-09-20T00:58:13.224576Z","epoch_age_seconds":81111,"freshness":"FRESH","line1":"1 68737U 26082K   26263.04043084  .00021045  00000+0  65192-3 0  9998","line2":"2 68737  97.2878 125.1762 0000252  75.8760 284.2511 15.33467598 24235","mean_motion":15.33467598,"eccentricity":2.52e-5,"inclination_deg":97.2878,"raan_deg":125.1762,"arg_perigee_deg":75.876,"mean_anomaly_deg":284.2511,"bstar":0.00065192,"rev_number":2423,"period_min":93.904820804698,"perigee_km":465.30348050879,"apogee_km":465.64839860094,"semimajor_km":6843.6129395549,"source":"CELESTRAK","updated_at":"2026-09-20T09:00:43.992112Z"}}}